| time (UTC) | temp F | wind direction | speed knots | gust knots | rain 1hr in | rain 24hr in | rain mn in | humidity % | barometer mb |
| 20260505065516 | 54 | 187 | 2.6 | 5.2 | 0.00 | 0.00 | 0.00 | 92 | 1002.5 |
| 20260505064516 | 54 | 200 | 1.7 | 5.2 | 0.00 | 0.00 | 0.00 | 91 | 1002.4 |
| 20260505063515 | 55 | 171 | 2.6 | 7.0 | 0.00 | 0.00 | 0.00 | 91 | 1002.3 |
| 20260505062516 | 55 | 174 | 1.7 | 5.2 | 0.00 | 0.00 | 0.00 | 90 | 1002.2 |
| 20260505061516 | 55 | 154 | 1.7 | 5.2 | 0.00 | 0.00 | 0.00 | 89 | 1002.1 |
| 20260505060516 | 56 | 187 | 2.6 | 6.1 | 0.00 | 0.00 | 0.00 | 89 | 1001.9 |
| 20260505055517 | 56 | 182 | 2.6 | 6.1 | 0.00 | 0.00 | 0.00 | 88 | 1001.9 |
| 20260505054517 | 56 | 223 | 2.6 | 6.1 | 0.00 | 0.00 | 0.00 | 88 | 1001.7 |
| 20260505053517 | 56 | 235 | 1.7 | 6.1 | 0.00 | 0.00 | 0.00 | 87 | 1001.7 |
| 20260505052517 | 57 | 208 | 1.7 | 4.3 | 0.00 | 0.00 | 0.00 | 86 | 1001.6 |
| 20260505051517 | 57 | 238 | 3.5 | 7.0 | 0.00 | 0.00 | 0.00 | 85 | 1001.6 |
| 20260505050518 | 58 | 243 | 3.5 | 7.0 | 0.00 | 0.00 | 0.00 | 84 | 1001.5 |
| 20260505041518 | 61 | 243 | 4.3 | 10.4 | 0.00 | 0.00 | 0.00 | 78 | 1001.1 |
| 20260505040518 | 62 | 239 | 4.3 | 9.6 | 0.00 | 0.00 | 0.00 | 77 | 1001.0 |
| 20260505035515 | 63 | 254 | 4.3 | 8.7 | 0.00 | 0.00 | 0.00 | 75 | 1000.9 |
| 20260505034516 | 64 | 245 | 4.3 | 7.8 | 0.00 | 0.00 | 0.00 | 73 | 1000.8 |
| 20260505033536 | 65 | 249 | 4.3 | 8.7 | 0.00 | 0.00 | 0.00 | 71 | 1000.7 |
| 20260505032516 | 66 | 248 | 4.3 | 7.8 | 0.00 | 0.00 | 0.00 | 70 | 1000.7 |
| 20260505031516 | 67 | 247 | 3.5 | 7.8 | 0.00 | 0.00 | 0.00 | 68 | 1000.6 |
| 20260505030516 | 69 | 264 | 2.6 | 7.0 | 0.00 | 0.00 | 0.00 | 66 | 1000.5 |
| 20260505025516 | 70 | 235 | 2.6 | 5.2 | 0.00 | 0.00 | 0.00 | 64 | 1000.5 |
| 20260505024517 | 71 | 249 | 2.6 | 7.8 | 0.00 | 0.00 | 0.00 | 62 | 1000.5 |
| 20260505023517 | 73 | 262 | 2.6 | 7.0 | 0.00 | 0.00 | 0.00 | 60 | 1000.5 |
| 20260505022517 | 74 | 269 | 2.6 | 8.7 | 0.00 | 0.00 | 0.00 | 58 | 1000.4 |
| 20260505021517 | 74 | 233 | 2.6 | 6.1 | 0.00 | 0.00 | 0.00 | 56 | 1000.5 |
| 20260505020518 | 75 | 233 | 2.6 | 6.1 | 0.00 | 0.00 | 0.00 | 55 | 1000.5 |
| 20260505015517 | 76 | 266 | 2.6 | 6.1 | 0.00 | 0.00 | 0.00 | 53 | 1000.4 |
| 20260505014518 | 76 | 252 | 3.5 | 6.1 | 0.00 | 0.00 | 0.00 | 53 | 1000.5 |
| 20260505013518 | 77 | 219 | 2.6 | 7.0 | 0.00 | 0.00 | 0.00 | 52 | 1000.5 |
| 20260505012558 | 77 | 248 | 2.6 | 6.1 | 0.00 | 0.00 | 0.00 | 51 | 1000.5 |
| 20260505011538 | 78 | 250 | 2.6 | 6.1 | 0.00 | 0.00 | 0.00 | 50 | 1000.6 |
| 20260505010559 | 79 | 243 | 1.7 | 5.2 | 0.00 | 0.00 | 0.00 | 49 | 1000.8 |
| 20260505005536 | 79 | 265 | 2.6 | 6.1 | 0.00 | 0.00 | 0.00 | 49 | 1000.7 |
| 20260505004515 | 79 | 279 | 3.5 | 8.7 | 0.00 | 0.00 | 0.00 | 49 | 1000.7 |
| 20260505003515 | 79 | 241 | 1.7 | 6.1 | 0.00 | 0.00 | 0.00 | 47 | 1000.8 |
| 20260505002516 | 80 | 201 | 2.6 | 7.0 | 0.00 | 0.00 | 0.00 | 48 | 1000.8 |
| 20260505001537 | 80 | 221 | 2.6 | 5.2 | 0.00 | 0.00 | 0.00 | 47 | 1000.8 |
| 20260505000517 | 80 | 213 | 2.6 | 6.1 | 0.00 | 0.00 | 0.00 | 46 | 1000.9 |
| 20260504235517 | 80 | 213 | 3.5 | 7.8 | 0.00 | 0.00 | 0.00 | 46 | 1000.9 |
| 20260504234516 | 80 | 168 | 1.7 | 6.1 | 0.00 | 0.00 | 0.00 | 46 | 1000.9 |
| 20260504233516 | 80 | 229 | 1.7 | 4.3 | 0.00 | 0.00 | 0.00 | 46 | 1001.0 |
| 20260504232557 | 80 | 220 | 3.5 | 7.8 | 0.00 | 0.00 | 0.00 | 44 | 1000.9 |
| 20260504231517 | 80 | 284 | 3.5 | 7.0 | 0.00 | 0.00 | 0.00 | 47 | 1001.0 |
| 20260504230557 | 81 | 173 | 2.6 | 7.0 | 0.00 | 0.00 | 0.00 | 44 | 1001.2 |
| 20260504225518 | 80 | 190 | 2.6 | 7.0 | 0.00 | 0.00 | 0.00 | 46 | 1001.3 |
| 20260504224518 | 80 | 219 | 2.6 | 7.8 | 0.00 | 0.00 | 0.00 | 47 | 1001.5 |
| 20260504223518 | 80 | 205 | 2.6 | 6.1 | 0.00 | 0.00 | 0.00 | 46 | 1001.6 |
| 20260504222518 | 79 | 200 | 2.6 | 5.2 | 0.00 | 0.00 | 0.00 | 47 | 1001.7 |
| 20260504221518 | 79 | 183 | 2.6 | 6.1 | 0.00 | 0.00 | 0.00 | 46 | 1001.8 |
| 20260504220519 | 78 | 296 | 2.6 | 7.0 | 0.00 | 0.00 | 0.00 | 47 | 1001.7 |
| 20260504215536 | 79 | 293 | 3.5 | 7.0 | 0.00 | 0.00 | 0.00 | 46 | 1001.9 |
| 20260504214536 | 78 | 150 | 2.6 | 7.0 | 0.00 | 0.00 | 0.00 | 47 | 1002.0 |
| 20260504213516 | 78 | 234 | 1.7 | 5.2 | 0.00 | 0.00 | 0.00 | 47 | 1002.1 |
| 20260504212516 | 78 | 151 | 3.5 | 7.8 | 0.00 | 0.00 | 0.00 | 49 | 1002.1 |
| 20260504211516 | 78 | 211 | 3.5 | 9.6 | 0.00 | 0.00 | 0.00 | 47 | 1002.2 |
| 20260504210517 | 77 | 154 | 3.5 | 7.8 | 0.00 | 0.00 | 0.00 | 51 | 1002.1 |
| 20260504205516 | 78 | 217 | 2.6 | 7.0 | 0.00 | 0.00 | 0.00 | 50 | 1002.3 |
| 20260504204537 | 77 | 162 | 2.6 | 5.2 | 0.00 | 0.00 | 0.00 | 53 | 1002.3 |
| 20260504203516 | 77 | 208 | 2.6 | 6.1 | 0.00 | 0.00 | 0.00 | 52 | 1002.5 |
| 20260504202516 | 75 | 182 | 3.5 | 7.8 | 0.00 | 0.00 | 0.00 | 56 | 1002.3 |
| 20260504201517 | 75 | 151 | 2.6 | 7.0 | 0.00 | 0.00 | 0.00 | 57 | 1002.2 |
| 20260504200517 | 74 | 131 | 4.3 | 7.8 | 0.00 | 0.00 | 0.00 | 58 | 1002.2 |
| 20260504195517 | 73 | 144 | 2.6 | 6.1 | 0.00 | 0.00 | 0.00 | 58 | 1002.4 |
| 20260504194517 | 73 | 124 | 4.3 | 7.8 | 0.00 | 0.00 | 0.00 | 60 | 1002.3 |
| 20260504193518 | 71 | 122 | 3.5 | 7.0 | 0.00 | 0.00 | 0.00 | 61 | 1002.4 |
| 20260504192518 | 70 | 129 | 3.5 | 6.1 | 0.00 | 0.00 | 0.00 | 62 | 1002.4 |
| 20260504191538 | 70 | 103 | 2.6 | 5.2 | 0.00 | 0.00 | 0.00 | 62 | 1002.5 |
| 20260504190518 | 70 | 112 | 3.5 | 5.2 | 0.00 | 0.00 | 0.00 | 62 | 1002.6 |
| 20260504185518 | 70 | 136 | 2.6 | 7.8 | 0.00 | 0.00 | 0.00 | 62 | 1002.6 |
| 20260504184516 | 69 | 115 | 3.5 | 6.1 | 0.00 | 0.00 | 0.00 | 62 | 1002.5 |
| 20260504183516 | 69 | 130 | 2.6 | 6.1 | 0.00 | 0.00 | 0.00 | 62 | 1002.6 |
| 20260504182536 | 69 | 123 | 2.6 | 6.1 | 0.00 | 0.00 | 0.00 | 62 | 1002.6 |
| 20260504181516 | 69 | 116 | 2.6 | 5.2 | 0.00 | 0.00 | 0.00 | 60 | 1002.7 |
| 20260504180516 | 69 | 152 | 2.6 | 6.1 | 0.00 | 0.00 | 0.00 | 59 | 1002.8 |
| 20260504175517 | 69 | 125 | 2.6 | 5.2 | 0.00 | 0.00 | 0.00 | 58 | 1002.7 |
| 20260504174516 | 68 | 118 | 2.6 | 5.2 | 0.00 | 0.00 | 0.00 | 58 | 1002.7 |
| 20260504173517 | 68 | 104 | 3.5 | 5.2 | 0.00 | 0.00 | 0.00 | 57 | 1002.7 |
| 20260504172517 | 67 | 98 | 2.6 | 5.2 | 0.00 | 0.00 | 0.00 | 60 | 1002.6 |
| 20260504171517 | 66 | 137 | 2.6 | 6.1 | 0.00 | 0.00 | 0.00 | 59 | 1002.6 |
| 20260504170517 | 65 | 112 | 2.6 | 6.1 | 0.00 | 0.00 | 0.00 | 62 | 1002.5 |
| 20260504150516 | 61 | 103 | 0.9 | 2.6 | 0.00 | 0.00 | 0.00 | 69 | 1001.7 |
| 20260504140517 | 58 | 72 | 0.0 | 0.9 | 0.00 | 0.00 | 0.00 | 73 | 1001.0 |
| 20260504130539 | 56 | 264 | 0.9 | 2.6 | 0.00 | 0.00 | 0.00 | 69 | 1000.3 |
| 20260504110517 | 59 | 138 | 0.0 | 1.7 | 0.00 | 0.00 | 0.00 | 62 | 1000.2 |
| 20260504100518 | 60 | 270 | 0.0 | 1.7 | 0.00 | 0.00 | 0.00 | 59 | 1000.2 |
| 20260504081517 | 62 | 284 | 0.9 | 2.6 | 0.00 | 0.00 | 0.00 | 53 | 1000.2 |
| 20260504080517 | 62 | 278 | 1.7 | 2.6 | 0.00 | 0.00 | 0.00 | 53 | 1000.2 |